Location: LDNL
(36.4545°S, 141.6685°E)
Time: 10:39:33
(UTC+10:00)

Explorer 7 - Pass Details

Date: 14 August 2022
Orbit: 482 x 668 km, 50.3° (Epoch: 26 September)

Event Time Altitude Azimuth Distance (km) Brightness Sun altitude
Rises 22:45:48 0° 227° (SW) 2,941 - -56.5°
Reaches altitude 10° 22:48:37 10° 212° (SSW) 1,996 - -57.0°
Maximum altitude 22:52:14 22° 159° (SSE) 1,312 - -57.6°
Drops below altitude 10° 22:55:41 10° 107° (ESE) 1,892 - -58.2°
Sets 22:58:16 0° 91° (E) 2,747 - -58.6°
